Location: McFarlands Corners
(41.4117°N, 81.3382°W)
Time: 12:24:06
(UTC+00:00)

A-11 Canister half - Visible Passes

Search period start: 09 November 2024 00:00
Search period end: 19 November 2024 00:00
Orbit: 1525 x 1683 km, 47.3° (Epoch: 08 November)

Date Brightness Start Highest point End Pass type
(mag) Time Alt. Az. Time Alt. Az. Time Alt. Az.
09 Nov 10.5 07:14:33 26° ENE 07:14:33 26° ENE 07:18:03 10° E visible
09 Nov 8.9 09:12:52 64° NW 09:14:34 81° NNE 09:23:54 10° ESE visible
09 Nov 9.4 11:11:10 13° WNW 11:19:05 44° SW 11:27:40 10° SSE visible
10 Nov 10.8 06:54:13 18° ENE 06:54:13 18° ENE 06:56:13 10° ENE visible
10 Nov 8.8 08:52:32 79° N 08:52:46 79° NNE 09:02:07 10° ESE visible
10 Nov 9.3 10:50:50 19° WNW 10:57:22 46° SW 11:06:02 10° SSE visible
11 Nov 11.1 06:33:56 12° ENE 06:33:56 12° ENE 06:34:25 10° ENE visible
11 Nov 9.1 08:32:14 68° ENE 08:32:14 68° ENE 08:40:19 10° ESE visible
11 Nov 9.3 10:30:33 26° W 10:35:39 48° SW 10:44:23 10° SSE visible
12 Nov 10.9 01:44:37 10° SSW 01:45:43 13° S 01:45:43 13° S visible
12 Nov 9.5 08:12:00 50° E 08:12:00 50° E 08:18:32 10° ESE visible
12 Nov 9.2 10:10:19 35° W 10:13:55 51° SW 10:22:45 10° SSE visible
13 Nov 10.6 01:23:02 10° S 01:25:44 19° S 01:25:44 19° S visible
13 Nov 10.0 07:51:49 36° E 07:51:49 36° E 07:56:43 10° ESE visible
13 Nov 9.1 09:50:08 46° WSW 09:52:11 53° SW 10:01:05 10° SSE visible
14 Nov 10.3 01:01:27 10° S 01:05:45 23° SSE 01:05:45 23° SSE visible
14 Nov 11.2 03:03:58 10° SW 03:04:05 10° SW 03:04:05 10° SW visible
14 Nov 10.5 07:31:40 25° E 07:31:40 25° E 07:34:55 10° ESE visible
14 Nov 9.0 09:30:00 55° SW 09:30:27 56° SW 09:39:25 10° SE visible
14 Nov 10.4 11:29:09 10° W 11:33:46 15° WSW 11:38:23 10° SSW visible
15 Nov 10.1 00:39:53 10° S 00:45:44 27° SSE 00:45:44 27° SSE visible
15 Nov 10.8 02:42:10 10° SW 02:44:05 18° SW 02:44:05 18° SW visible
15 Nov 10.9 07:11:34 16° E 07:11:34 16° E 07:13:07 10° E visible
15 Nov 9.1 09:09:54 55° S 09:09:54 55° S 09:17:45 10° SE visible
15 Nov 10.3 11:08:14 12° W 11:12:05 16° WSW 11:17:12 10° SSW visible
16 Nov 9.9 00:18:21 10° S 00:25:43 27° SE 00:25:43 27° SE visible
16 Nov 10.4 02:20:23 10° SW 02:24:02 26° SW 02:24:02 26° SW visible
16 Nov 9.5 08:49:50 45° SSE 08:49:50 45° SSE 08:56:04 10° SE visible
16 Nov 10.2 10:48:10 16° WSW 10:50:25 17° SW 10:55:57 10° SSW visible
16 Nov 9.9 23:56:49 10° S 00:04:34 26° SE 00:05:38 25° ESE visible
17 Nov 10.0 01:58:35 10° SW 02:03:57 37° SW 02:03:57 37° SW visible
17 Nov 10.0 08:29:49 33° SSE 08:29:49 33° SSE 08:34:22 10° SE visible
17 Nov 10.1 10:28:09 19° WSW 10:28:44 19° SW 10:34:38 10° SSW visible
17 Nov 10.0 23:35:20 10° S 23:42:51 24° SE 23:45:31 22° ESE visible
18 Nov 9.5 01:36:48 10° SW 01:43:49 50° SSW 01:43:49 50° SSW visible
18 Nov 10.4 08:09:48 23° SE 08:09:48 23° SE 08:12:40 10° SE visible
18 Nov 10.2 10:08:08 20° SW 10:08:08 20° SW 10:13:18 10° S visible
18 Nov 10.2 23:13:51 10° S 23:21:07 23° SE 23:25:20 17° E visible
